Regional Weather Roundup
Issued by NWS Sioux Falls, SD

Home | Current Version | Previous Version | Graphics & Text | Print | Product List | Glossary On
Versions: 1 2 3 4 5 6 7 8 9 10 11 12 13 14 15 16 17 18 19 20 21 22 23 24 25 26 27 28 29 30 31 32 33 34 35 36 37 38 39 40 41 42 43 44 45 46 47 48 49 50
000
ASUS43 KFSD 230302
RWRFSD

WEATHER ROUNDUP FOR SE SOUTH DAKOTA/SW MINNESOTA/NW IOWA
NATIONAL WEATHER SERVICE SIOUX FALLS SD
1000 PM CDT MON SEP 22 2014

NOTE: "FAIR" INDICATES FEW OR NO CLOUDS BELOW 12,000 FEET WITH NO
SIGNIFICANT WEATHER AND OR OBSTRUCTIONS TO VISIBILITY.


SDZ038>040-050-052>070-230400-
SOUTHEAST SOUTH DAKOTA

CITY           SKY/WX    TMP DP  RH WIND       PRES   REMARKS
CHAMBERLAIN    CLOUDY    64  52  65 SE9       30.06S
HURON          PTCLDY    65  49  56 S12       30.07S
MADISON        FAIR      57  50  77 S8        30.14R
MITCHELL       MOCLDY    65  51  60 SE10      30.09F
SIOUX FALLS    MOCLDY    63  50  62 S12       30.15R
WINNER         FAIR      65  52  62 S17G28    30.05S
YANKTON        PTCLDY    63  50  63 SE10      30.14R
$$

MNZ071-072-080-081-089-090-097-098-230400-
SOUTHWEST MINNESOTA

CITY           SKY/WX    TMP DP  RH WIND       PRES   REMARKS
FAIRMONT       CLEAR     54  45  71 S6        30.18S
JACKSON        CLEAR     55  46  71 S5        30.19S
LUVERNE        PTCLDY    54  46  76 S5        30.17S
MARSHALL       CLEAR     55  46  71 S7        30.13S
MONTEVIDEO     CLEAR     59  48  67 SW7       30.13S
PIPESTONE      PTCLDY    57  48  72 S8        30.15S
REDWOOD FALLS  CLEAR     59  49  69 S8        30.14S
TRACY          CLEAR     59  49  69 CALM      30.15F
WINDOM         CLEAR     55  48  76 S3        30.17S
WORTHINGTON    PTCLDY    55  48  76 S7        30.19R
$$

IAZ001>003-012>014-020>022-031-032-NEZ013-014-SDZ071-230400-
NORTHWEST IOWA

CITY           SKY/WX    TMP DP  RH WIND       PRES   REMARKS
CHEROKEE       MOCLDY    55  52  89 CALM      30.19S
DENISON        CLOUDY    57  54  88 SE6       30.18F
ESTHERVILLE    CLEAR     54  48  80 S7        30.19R
LE MARS          N/A     61  52  72 VRB6      30.17S
ORANGE CITY    MOCLDY    59  50  72 SE3       30.18S
SHELDON        MOCLDY    55  52  88 SE7       30.17S
SIOUX CITY     MOCLDY    61  52  72 SE6       30.17R
SPENCER        PTCLDY    54  49  83 SE7       30.19R
$$

ABBREVIATIONS USED IN REMARKS
   TC - TEMPERATURE IN CELSIUS
  WCI - WIND CHILL INDEX
   HX - HEAT INDEX
  VSB - VISIBILITY



USA.gov is the U.S. government's official web portal to all federal, state and local government web resources and services.